This is the latest recevied weather packets stored in our database for station/object HI3FAM-13. If no packets are shown the sender has not sent any weather packets the latest 10 day(s).
| Time | Temp. | Humidity | Pressure | Rain* | Wind** | Luminosity | Snow |
|---|---|---|---|---|---|---|---|
| 1778273693 | 33.33° C | 52% | 1012 hPa | 0 mm | - | - | - |
| 1778273087 | 33.33° C | 52% | 1012 hPa | 0 mm | - | - | - |
| 1778272487 | 33.33° C | 52% | 1012 hPa | 0 mm | - | - | - |
| 1778271886 | 33.33° C | 52% | 1012 hPa | 0 mm | - | - | - |
| 1778271286 | 33.33° C | 52% | 1012 hPa | 0 mm | - | - | - |
| 1778270685 | 33.33° C | 52% | 1012 hPa | 0 mm | - | - | - |
| 1778270083 | 33.33° C | 52% | 1012 hPa | 0 mm | - | - | - |
| 1778269482 | 33.33° C | 52% | 1012 hPa | 0 mm | - | - | - |
| 1778268882 | 33.33° C | 52% | 1012 hPa | 0 mm | - | - | - |
| 1778268281 | 33.33° C | 52% | 1012 hPa | 0 mm | - | - | - |
| 1778267681 | 33.33° C | 52% | 1013 hPa | 0 mm | - | - | - |
| 1778267080 | 33.33° C | 52% | 1013 hPa | 0 mm | - | - | - |
| 1778266480 | 33.33° C | 55% | 1013 hPa | 0 mm | - | - | - |
| 1778265879 | 33.33° C | 55% | 1013 hPa | 0 mm | - | - | - |
| 1778265278 | 33.33° C | 55% | 1013 hPa | 0 mm | - | - | - |
| 1778264678 | 33.33° C | 55% | 1013 hPa | 0 mm | - | - | - |
| 1778264077 | 33.33° C | 55% | 1013 hPa | 0 mm | - | - | - |
| 1778263477 | 32.78° C | 57% | 1013 hPa | 0 mm | - | - | - |
| 1778262877 | 31.11° C | 58% | 1013 hPa | 0 mm | - | - | - |
| 1778262276 | 32.78° C | 57% | 1013 hPa | 0 mm | - | - | - |
| 1778261676 | 32.22° C | 56% | 1013 hPa | 0 mm | - | - | - |
| 1778261075 | 31.11° C | 54% | 1014 hPa | 0 mm | - | - | - |
| 1778260474 | 32.22° C | 61% | 1014 hPa | 0 mm | - | - | - |
| 1778259874 | 30.56° C | 61% | 1014 hPa | 0 mm | - | - | - |
| 1778259273 | 30.56° C | 61% | 1014 hPa | 0 mm | - | - | - |
* Rain latest hour (hover to see other rain measurements)
** Current wind speed in m/s (hover to see current wind gust speed)